Year,Month,Day,Hour,Minute,Value (Times are PST for temperature in C)
2018,07,15,00,00,18.10
2018,07,15,00,01,18.10
2018,07,15,00,02,18.10
2018,07,15,00,03,18.10
2018,07,15,00,04,18.10
2018,07,15,00,05,18.10
2018,07,15,00,06,18.10
2018,07,15,00,07,18.00
2018,07,15,00,08,18.00
2018,07,15,00,09,18.00
2018,07,15,00,10,18.00
2018,07,15,00,11,17.90
2018,07,15,00,12,17.90
2018,07,15,00,13,17.90
2018,07,15,00,14,17.90
2018,07,15,00,15,17.90
2018,07,15,00,16,17.90
2018,07,15,00,17,17.80
2018,07,15,00,18,17.80
2018,07,15,00,19,17.80
2018,07,15,00,20,17.80
2018,07,15,00,21,17.80
2018,07,15,00,22,17.80
2018,07,15,00,23,17.70
2018,07,15,00,24,17.70
2018,07,15,00,25,17.70
2018,07,15,00,26,17.70
2018,07,15,00,27,17.60
2018,07,15,00,28,17.60
2018,07,15,00,29,17.60
2018,07,15,00,30,17.50
2018,07,15,00,31,17.50
2018,07,15,00,32,17.50
2018,07,15,00,33,17.50
2018,07,15,00,34,17.40
2018,07,15,00,35,17.40
2018,07,15,00,36,17.40
2018,07,15,00,37,17.40
2018,07,15,00,38,17.40
2018,07,15,00,39,17.40
2018,07,15,00,40,17.40
2018,07,15,00,41,17.40
2018,07,15,00,42,17.30
2018,07,15,00,43,17.30
2018,07,15,00,44,17.30
2018,07,15,00,45,17.30
2018,07,15,00,46,17.30
2018,07,15,00,47,17.30
2018,07,15,00,48,17.30
2018,07,15,00,49,17.40
2018,07,15,00,50,17.40
2018,07,15,00,51,17.40
2018,07,15,00,52,17.50
2018,07,15,00,53,17.50
2018,07,15,00,54,17.50
2018,07,15,00,55,17.60
2018,07,15,00,56,17.60
2018,07,15,00,57,17.60
2018,07,15,00,58,17.60
2018,07,15,00,59,17.60
2018,07,15,01,00,17.60
2018,07,15,01,01,17.70
2018,07,15,01,02,17.70
2018,07,15,01,03,17.70
2018,07,15,01,04,17.70
2018,07,15,01,05,17.80
2018,07,15,01,06,17.80
2018,07,15,01,07,17.80
2018,07,15,01,08,17.90
2018,07,15,01,09,17.90
2018,07,15,01,10,17.90
2018,07,15,01,11,17.90
2018,07,15,01,12,17.90
2018,07,15,01,13,18.00
2018,07,15,01,14,18.00
2018,07,15,01,15,18.00
2018,07,15,01,16,18.00
2018,07,15,01,17,18.00
2018,07,15,01,18,17.90
2018,07,15,01,19,17.90
2018,07,15,01,20,17.90
2018,07,15,01,21,17.90
2018,07,15,01,22,17.80
2018,07,15,01,23,17.80
2018,07,15,01,24,17.80
2018,07,15,01,25,17.80
2018,07,15,01,26,17.80
2018,07,15,01,27,17.80
2018,07,15,01,28,17.80
2018,07,15,01,29,17.80
2018,07,15,01,30,17.80
2018,07,15,01,31,17.80
2018,07,15,01,32,17.80
2018,07,15,01,33,17.80
2018,07,15,01,34,17.80
2018,07,15,01,35,17.80
2018,07,15,01,36,17.70
2018,07,15,01,37,17.70
2018,07,15,01,38,17.70
2018,07,15,01,39,17.60
2018,07,15,01,40,17.60
2018,07,15,01,41,17.50
2018,07,15,01,42,17.50
2018,07,15,01,43,17.40
2018,07,15,01,44,17.40
2018,07,15,01,45,17.30
2018,07,15,01,46,17.30
2018,07,15,01,47,17.30
2018,07,15,01,48,17.20
2018,07,15,01,49,17.20
2018,07,15,01,50,17.20
2018,07,15,01,51,17.10
2018,07,15,01,52,17.10
2018,07,15,01,53,17.10
2018,07,15,01,54,17.00
2018,07,15,01,55,16.90
2018,07,15,01,56,16.90
2018,07,15,01,57,16.90
2018,07,15,01,58,16.80
2018,07,15,01,59,16.80
2018,07,15,02,00,16.80
2018,07,15,02,01,16.70
2018,07,15,02,02,16.70
2018,07,15,02,03,16.70
2018,07,15,02,04,16.70
2018,07,15,02,05,16.60
2018,07,15,02,06,16.60
2018,07,15,02,07,16.60
2018,07,15,02,08,16.60
2018,07,15,02,09,16.60
2018,07,15,02,10,16.50
2018,07,15,02,11,16.50
2018,07,15,02,12,16.40
2018,07,15,02,13,16.40
2018,07,15,02,14,16.40
2018,07,15,02,15,16.30
2018,07,15,02,16,16.30
2018,07,15,02,17,16.30
2018,07,15,02,18,16.20
2018,07,15,02,19,16.20
2018,07,15,02,20,16.10
2018,07,15,02,21,16.10
2018,07,15,02,22,16.10
2018,07,15,02,23,16.00
2018,07,15,02,24,16.00
2018,07,15,02,25,15.90
2018,07,15,02,26,15.90
2018,07,15,02,27,15.90
2018,07,15,02,28,15.90
2018,07,15,02,29,15.80
2018,07,15,02,30,15.80
2018,07,15,02,31,15.80
2018,07,15,02,32,15.80
2018,07,15,02,33,15.80
2018,07,15,02,34,15.80
2018,07,15,02,35,15.80
2018,07,15,02,36,15.80
2018,07,15,02,37,15.80
2018,07,15,02,38,15.70
2018,07,15,02,39,15.70
2018,07,15,02,40,15.70
2018,07,15,02,41,15.70
2018,07,15,02,42,15.60
2018,07,15,02,43,15.60
2018,07,15,02,44,15.60
2018,07,15,02,45,15.60
2018,07,15,02,46,15.60
2018,07,15,02,47,15.60
2018,07,15,02,48,15.60
2018,07,15,02,49,15.50
2018,07,15,02,50,15.50
2018,07,15,02,51,15.50
2018,07,15,02,52,15.50
2018,07,15,02,53,15.50
2018,07,15,02,54,15.40
2018,07,15,02,55,15.40
2018,07,15,02,56,15.40
2018,07,15,02,57,15.30
2018,07,15,02,58,15.30
2018,07,15,02,59,15.30
2018,07,15,03,00,15.30
2018,07,15,03,01,15.30
2018,07,15,03,02,15.30
2018,07,15,03,03,15.30
2018,07,15,03,04,15.30
2018,07,15,03,05,15.20
2018,07,15,03,06,15.20
2018,07,15,03,07,15.20
2018,07,15,03,08,15.20
2018,07,15,03,09,15.20
2018,07,15,03,10,15.20
2018,07,15,03,11,15.20
2018,07,15,03,12,15.20
2018,07,15,03,13,15.20
2018,07,15,03,14,15.20
2018,07,15,03,15,15.20
2018,07,15,03,16,15.10
2018,07,15,03,17,15.10
2018,07,15,03,18,15.10
2018,07,15,03,19,15.20
2018,07,15,03,20,15.20
2018,07,15,03,21,15.20
2018,07,15,03,22,15.20
2018,07,15,03,23,15.20
2018,07,15,03,24,15.20
2018,07,15,03,25,15.20
2018,07,15,03,26,15.20
2018,07,15,03,27,15.20
2018,07,15,03,28,15.20
2018,07,15,03,29,15.20
2018,07,15,03,30,15.20
2018,07,15,03,31,15.20
2018,07,15,03,32,15.20
2018,07,15,03,33,15.20
2018,07,15,03,34,15.10
2018,07,15,03,35,15.10
2018,07,15,03,36,15.10
2018,07,15,03,37,15.10
2018,07,15,03,38,15.00
2018,07,15,03,39,15.00
2018,07,15,03,40,14.90
2018,07,15,03,41,14.90
2018,07,15,03,42,14.90
2018,07,15,03,43,14.80
2018,07,15,03,44,14.80
2018,07,15,03,45,14.80
2018,07,15,03,46,14.80
2018,07,15,03,47,14.70
2018,07,15,03,48,14.70
2018,07,15,03,49,14.70
2018,07,15,03,50,14.70
2018,07,15,03,51,14.70
2018,07,15,03,52,14.70
2018,07,15,03,53,14.70
2018,07,15,03,54,14.70
2018,07,15,03,55,14.70
2018,07,15,03,56,14.60
2018,07,15,03,57,14.60
2018,07,15,03,58,14.60
2018,07,15,03,59,14.60
2018,07,15,04,00,14.60
2018,07,15,04,01,14.60
2018,07,15,04,02,14.60
2018,07,15,04,03,14.60
2018,07,15,04,04,14.60
2018,07,15,04,05,14.60
2018,07,15,04,06,14.60
2018,07,15,04,07,14.60
2018,07,15,04,08,14.60
2018,07,15,04,09,14.50
2018,07,15,04,10,14.50
2018,07,15,04,11,14.50
2018,07,15,04,12,14.40
2018,07,15,04,13,14.40
2018,07,15,04,14,14.40
2018,07,15,04,15,14.40
2018,07,15,04,16,14.40
2018,07,15,04,17,14.30
2018,07,15,04,18,14.30
2018,07,15,04,19,14.30
2018,07,15,04,20,14.30
2018,07,15,04,21,14.30
2018,07,15,04,22,14.30
2018,07,15,04,23,14.30
2018,07,15,04,24,14.30
2018,07,15,04,25,14.30
2018,07,15,04,26,14.30
2018,07,15,04,27,14.20
2018,07,15,04,28,14.20
2018,07,15,04,29,14.20
2018,07,15,04,30,14.20
2018,07,15,04,31,14.20
2018,07,15,04,32,14.20
2018,07,15,04,33,14.20
2018,07,15,04,34,14.20
2018,07,15,04,35,14.20
2018,07,15,04,36,14.20
2018,07,15,04,37,14.20
2018,07,15,04,38,14.20
2018,07,15,04,39,14.20
2018,07,15,04,40,14.20
2018,07,15,04,41,14.20
2018,07,15,04,42,14.20
2018,07,15,04,43,14.20
2018,07,15,04,44,14.20
2018,07,15,04,45,14.20
2018,07,15,04,46,14.10
2018,07,15,04,47,14.10
2018,07,15,04,48,14.10
2018,07,15,04,49,14.10
2018,07,15,04,50,14.10
2018,07,15,04,51,14.10
2018,07,15,04,52,14.10
2018,07,15,04,53,14.10
2018,07,15,04,54,14.10
2018,07,15,04,55,14.10
2018,07,15,04,56,14.00
2018,07,15,04,57,14.00
2018,07,15,04,58,14.00
2018,07,15,04,59,14.00
2018,07,15,05,00,14.00
2018,07,15,05,01,13.90
2018,07,15,05,02,13.90
2018,07,15,05,03,13.90
2018,07,15,05,04,13.90
2018,07,15,05,05,13.90
2018,07,15,05,06,13.90
2018,07,15,05,07,13.90
2018,07,15,05,08,13.90
2018,07,15,05,09,13.90
2018,07,15,05,10,13.90
2018,07,15,05,11,13.90
2018,07,15,05,12,13.90
2018,07,15,05,13,13.90
2018,07,15,05,14,13.90
2018,07,15,05,15,13.90
2018,07,15,05,16,13.90
2018,07,15,05,17,13.90
2018,07,15,05,18,13.80
2018,07,15,05,19,13.80
2018,07,15,05,20,13.80
2018,07,15,05,21,13.80
2018,07,15,05,22,13.80
2018,07,15,05,23,13.80
2018,07,15,05,24,13.80
2018,07,15,05,25,13.80
2018,07,15,05,26,13.80
2018,07,15,05,27,13.80
2018,07,15,05,28,13.80
2018,07,15,05,29,13.80
2018,07,15,05,30,13.80
2018,07,15,05,31,13.80
2018,07,15,05,32,13.70
2018,07,15,05,33,13.70
2018,07,15,05,34,13.70
2018,07,15,05,35,13.70
2018,07,15,05,36,13.70
2018,07,15,05,37,13.80
2018,07,15,05,38,13.80
2018,07,15,05,39,13.80
2018,07,15,05,40,13.80
2018,07,15,05,41,13.80
2018,07,15,05,42,13.90
2018,07,15,05,43,13.90
2018,07,15,05,44,13.90
2018,07,15,05,45,13.90
2018,07,15,05,46,13.80
2018,07,15,05,47,13.80
2018,07,15,05,48,13.80
2018,07,15,05,49,13.80
2018,07,15,05,50,13.80
2018,07,15,05,51,13.80
2018,07,15,05,52,13.80
2018,07,15,05,53,13.80
2018,07,15,05,54,13.80
2018,07,15,05,55,13.70
2018,07,15,05,56,13.70
2018,07,15,05,57,13.70
2018,07,15,05,58,13.70
2018,07,15,05,59,13.70
2018,07,15,06,00,13.70
2018,07,15,06,01,13.70
2018,07,15,06,02,13.70
2018,07,15,06,03,13.70
2018,07,15,06,04,13.70
2018,07,15,06,05,13.70
2018,07,15,06,06,13.70
2018,07,15,06,07,13.70
2018,07,15,06,08,13.60
2018,07,15,06,09,13.60
2018,07,15,06,10,13.60
2018,07,15,06,11,13.60
2018,07,15,06,12,13.60
2018,07,15,06,13,13.60
2018,07,15,06,14,13.60
2018,07,15,06,15,13.70
2018,07,15,06,16,13.70
2018,07,15,06,17,13.70
2018,07,15,06,18,13.70
2018,07,15,06,19,13.70
2018,07,15,06,20,13.70
2018,07,15,06,21,13.70
2018,07,15,06,22,13.70
2018,07,15,06,23,13.70
2018,07,15,06,24,13.70
2018,07,15,06,25,13.70
2018,07,15,06,26,13.70
2018,07,15,06,27,13.70
2018,07,15,06,28,13.80
2018,07,15,06,29,13.80
2018,07,15,06,30,13.80
2018,07,15,06,31,13.90
2018,07,15,06,32,13.90
2018,07,15,06,33,13.90
2018,07,15,06,34,14.00
2018,07,15,06,35,14.00
2018,07,15,06,36,14.10
2018,07,15,06,37,14.20
2018,07,15,06,38,14.20
2018,07,15,06,39,14.30
2018,07,15,06,40,14.40
2018,07,15,06,41,14.50
2018,07,15,06,42,14.60
2018,07,15,06,43,14.70
2018,07,15,06,44,14.70
2018,07,15,06,45,14.80
2018,07,15,06,46,14.90
2018,07,15,06,47,15.00
2018,07,15,06,48,15.10
2018,07,15,06,49,15.20
2018,07,15,06,50,15.30
2018,07,15,06,51,15.40
2018,07,15,06,52,15.50
2018,07,15,06,53,15.60
2018,07,15,06,54,15.60
2018,07,15,06,55,15.70
2018,07,15,06,56,15.70
2018,07,15,06,57,15.70
2018,07,15,06,58,15.80
2018,07,15,06,59,15.80
2018,07,15,07,00,15.80
2018,07,15,07,01,15.90
2018,07,15,07,02,15.90
2018,07,15,07,03,16.00
2018,07,15,07,04,16.10
2018,07,15,07,05,16.10
2018,07,15,07,06,16.10
2018,07,15,07,07,16.10
2018,07,15,07,08,16.20
2018,07,15,07,09,16.20
2018,07,15,07,10,16.30
2018,07,15,07,11,16.30
2018,07,15,07,12,16.40
2018,07,15,07,13,16.40
2018,07,15,07,14,16.50
2018,07,15,07,15,16.60
2018,07,15,07,16,16.60
2018,07,15,07,17,16.70
2018,07,15,07,18,16.80
2018,07,15,07,19,16.80
2018,07,15,07,20,16.80
2018,07,15,07,21,16.90
2018,07,15,07,22,17.00
2018,07,15,07,23,17.00
2018,07,15,07,24,17.10
2018,07,15,07,25,17.20
2018,07,15,07,26,17.20
2018,07,15,07,27,17.30
2018,07,15,07,28,17.40
2018,07,15,07,29,17.50
2018,07,15,07,30,17.70
2018,07,15,07,31,17.80
2018,07,15,07,32,17.90
2018,07,15,07,33,18.00
2018,07,15,07,34,18.10
2018,07,15,07,35,18.10
2018,07,15,07,36,18.20
2018,07,15,07,37,18.30
2018,07,15,07,38,18.30
2018,07,15,07,39,18.40
2018,07,15,07,40,18.50
2018,07,15,07,41,18.50
2018,07,15,07,42,18.60
2018,07,15,07,43,18.70
2018,07,15,07,44,18.70
2018,07,15,07,45,18.80
2018,07,15,07,46,18.90
2018,07,15,07,47,18.90
2018,07,15,07,48,19.00
2018,07,15,07,49,19.00
2018,07,15,07,50,19.10
2018,07,15,07,51,19.20
2018,07,15,07,52,19.20
2018,07,15,07,53,19.30
2018,07,15,07,54,19.30
2018,07,15,07,55,19.40
2018,07,15,07,56,19.50
2018,07,15,07,57,19.50
2018,07,15,07,58,19.60
2018,07,15,07,59,19.70
2018,07,15,08,00,19.70
2018,07,15,08,01,19.80
2018,07,15,08,02,19.80
2018,07,15,08,03,19.90
2018,07,15,08,04,20.00
2018,07,15,08,05,20.10
2018,07,15,08,06,20.20
2018,07,15,08,07,20.20
2018,07,15,08,08,20.20
2018,07,15,08,09,20.30
2018,07,15,08,10,20.30
2018,07,15,08,11,20.40
2018,07,15,08,12,20.40
2018,07,15,08,13,20.50
2018,07,15,08,14,20.50
2018,07,15,08,15,20.60
2018,07,15,08,16,20.60
2018,07,15,08,17,20.60
2018,07,15,08,18,20.70
2018,07,15,08,19,20.70
2018,07,15,08,20,20.80
2018,07,15,08,21,20.80
2018,07,15,08,22,20.80
2018,07,15,08,23,20.80
2018,07,15,08,24,20.80
2018,07,15,08,25,20.80
2018,07,15,08,26,20.80
2018,07,15,08,27,20.90
2018,07,15,08,28,20.90
2018,07,15,08,29,20.90
2018,07,15,08,30,20.90
2018,07,15,08,31,21.00
2018,07,15,08,32,21.00
2018,07,15,08,33,21.10
2018,07,15,08,34,21.10
2018,07,15,08,35,21.10
2018,07,15,08,36,21.10
2018,07,15,08,37,21.10
2018,07,15,08,38,21.10
2018,07,15,08,39,21.20
2018,07,15,08,40,21.20
2018,07,15,08,41,21.20
2018,07,15,08,42,21.30
2018,07,15,08,43,21.30
2018,07,15,08,44,21.40
2018,07,15,08,45,21.40
2018,07,15,08,46,21.40
2018,07,15,08,47,21.40
2018,07,15,08,48,21.50
2018,07,15,08,49,21.50
2018,07,15,08,50,21.50
2018,07,15,08,51,21.50
2018,07,15,08,52,21.50
2018,07,15,08,53,21.60
2018,07,15,08,54,21.60
2018,07,15,08,55,21.60
2018,07,15,08,56,21.60
2018,07,15,08,57,21.60
2018,07,15,08,58,21.60
2018,07,15,08,59,21.60
2018,07,15,09,00,21.70
2018,07,15,09,01,21.70
2018,07,15,09,02,21.70
2018,07,15,09,03,21.80
2018,07,15,09,04,21.80
2018,07,15,09,05,21.90
2018,07,15,09,06,21.90
2018,07,15,09,07,22.00
2018,07,15,09,08,22.10
2018,07,15,09,09,22.10
2018,07,15,09,10,22.20
2018,07,15,09,11,22.20
2018,07,15,09,12,22.20
2018,07,15,09,13,22.20
2018,07,15,09,14,22.10
2018,07,15,09,15,22.10
2018,07,15,09,16,22.10
2018,07,15,09,17,22.20
2018,07,15,09,18,22.20
2018,07,15,09,19,22.20
2018,07,15,09,20,22.30
2018,07,15,09,21,22.30
2018,07,15,09,22,22.30
2018,07,15,09,23,22.30
2018,07,15,09,24,22.30
2018,07,15,09,25,22.40
2018,07,15,09,26,22.40
2018,07,15,09,27,22.50
2018,07,15,09,28,22.50
2018,07,15,09,29,22.50
2018,07,15,09,30,22.50
2018,07,15,09,31,22.60
2018,07,15,09,32,22.60
2018,07,15,09,33,22.60
2018,07,15,09,34,22.70
2018,07,15,09,35,22.70
2018,07,15,09,36,22.70
2018,07,15,09,37,22.80
2018,07,15,09,38,22.80
2018,07,15,09,39,22.80
2018,07,15,09,40,22.80
2018,07,15,09,41,22.80
2018,07,15,09,42,22.80
2018,07,15,09,43,22.80
2018,07,15,09,44,22.80
2018,07,15,09,45,22.70
2018,07,15,09,46,22.70
2018,07,15,09,47,22.70
2018,07,15,09,48,22.70
2018,07,15,09,49,22.70
2018,07,15,09,50,22.70
2018,07,15,09,51,22.80
2018,07,15,09,52,22.80
2018,07,15,09,53,22.80
2018,07,15,09,54,22.80
2018,07,15,09,55,22.80
2018,07,15,09,56,22.90
2018,07,15,09,57,22.90
2018,07,15,09,58,22.90
2018,07,15,09,59,22.90
2018,07,15,10,00,22.90
2018,07,15,10,01,23.00
2018,07,15,10,02,23.00
2018,07,15,10,03,23.10
2018,07,15,10,04,23.10
2018,07,15,10,05,23.10
2018,07,15,10,06,23.20
2018,07,15,10,07,23.20
2018,07,15,10,08,23.20
2018,07,15,10,09,23.30
2018,07,15,10,10,23.30
2018,07,15,10,11,23.30
2018,07,15,10,12,23.40
2018,07,15,10,13,23.40
2018,07,15,10,14,23.40
2018,07,15,10,15,23.40
2018,07,15,10,16,23.40
2018,07,15,10,17,23.40
2018,07,15,10,18,23.40
2018,07,15,10,19,23.40
2018,07,15,10,20,23.30
2018,07,15,10,21,23.30
2018,07,15,10,22,23.30
2018,07,15,10,23,23.30
2018,07,15,10,24,23.20
2018,07,15,10,25,23.20
2018,07,15,10,26,23.20
2018,07,15,10,27,23.20
2018,07,15,10,28,23.20
2018,07,15,10,29,23.20
2018,07,15,10,30,23.20
2018,07,15,10,31,23.20
2018,07,15,10,32,23.20
2018,07,15,10,33,23.20
2018,07,15,10,34,23.20
2018,07,15,10,35,23.20
2018,07,15,10,36,23.10
2018,07,15,10,37,23.00
2018,07,15,10,38,23.00
2018,07,15,10,39,23.00
2018,07,15,10,40,23.00
2018,07,15,10,41,23.10
2018,07,15,10,42,23.10
2018,07,15,10,43,23.20
2018,07,15,10,44,23.30
2018,07,15,10,45,23.30
2018,07,15,10,46,23.30
2018,07,15,10,47,23.40
2018,07,15,10,48,23.30
2018,07,15,10,49,23.30
2018,07,15,10,50,23.30
2018,07,15,10,51,23.30
2018,07,15,10,52,23.30
2018,07,15,10,53,23.30
2018,07,15,10,54,23.40
2018,07,15,10,55,23.40
2018,07,15,10,56,23.40
2018,07,15,10,57,23.40
2018,07,15,10,58,23.40
2018,07,15,10,59,23.50
2018,07,15,11,00,23.60
2018,07,15,11,01,23.60
2018,07,15,11,02,23.70
2018,07,15,11,03,23.70
2018,07,15,11,04,23.80
2018,07,15,11,05,23.80
2018,07,15,11,06,23.80
2018,07,15,11,07,23.80
2018,07,15,11,08,23.80
2018,07,15,11,09,23.80
2018,07,15,11,10,23.80
2018,07,15,11,11,23.80
2018,07,15,11,12,23.80
2018,07,15,11,13,23.80
2018,07,15,11,14,23.80
2018,07,15,11,15,23.90
2018,07,15,11,16,24.00
2018,07,15,11,17,24.10
2018,07,15,11,18,24.10
2018,07,15,11,19,24.10
2018,07,15,11,20,24.10
2018,07,15,11,21,24.10
2018,07,15,11,22,24.10
2018,07,15,11,23,24.20
2018,07,15,11,24,24.20
2018,07,15,11,25,24.20
2018,07,15,11,26,24.20
2018,07,15,11,27,24.20
2018,07,15,11,28,24.20
2018,07,15,11,29,24.30
2018,07,15,11,30,24.40
2018,07,15,11,31,24.40
2018,07,15,11,32,24.50
2018,07,15,11,33,24.60
2018,07,15,11,34,24.60
2018,07,15,11,35,24.60
2018,07,15,11,36,24.60
2018,07,15,11,37,24.60
2018,07,15,11,38,24.60
2018,07,15,11,39,24.60
2018,07,15,11,40,24.60
2018,07,15,11,41,24.70
2018,07,15,11,42,24.70
2018,07,15,11,43,24.80
2018,07,15,11,44,24.80
2018,07,15,11,45,24.90
2018,07,15,11,46,24.80
2018,07,15,11,47,24.80
2018,07,15,11,48,24.80
2018,07,15,11,49,24.80
2018,07,15,11,50,24.80
2018,07,15,11,51,24.90
2018,07,15,11,52,24.90
2018,07,15,11,53,24.90
2018,07,15,11,54,25.00
2018,07,15,11,55,25.00
2018,07,15,11,56,25.10
2018,07,15,11,57,25.10
2018,07,15,11,58,25.20
2018,07,15,11,59,25.20
2018,07,15,12,00,25.10
2018,07,15,12,01,25.10
2018,07,15,12,02,25.00
2018,07,15,12,03,25.10
2018,07,15,12,04,25.10
2018,07,15,12,05,25.10
2018,07,15,12,06,25.10
2018,07,15,12,07,25.20
2018,07,15,12,08,25.20
2018,07,15,12,09,25.20
2018,07,15,12,10,25.20
2018,07,15,12,11,25.20
2018,07,15,12,12,25.20
2018,07,15,12,13,25.20
2018,07,15,12,14,25.20
2018,07,15,12,15,25.20
2018,07,15,12,16,25.10
2018,07,15,12,17,25.10
2018,07,15,12,18,25.10
2018,07,15,12,19,25.10
2018,07,15,12,20,25.00
2018,07,15,12,21,25.00
2018,07,15,12,22,25.10
2018,07,15,12,23,25.10
2018,07,15,12,24,25.10
2018,07,15,12,25,25.00
2018,07,15,12,26,25.00
2018,07,15,12,27,24.90
2018,07,15,12,28,24.90
2018,07,15,12,29,24.90
2018,07,15,12,30,24.90
2018,07,15,12,31,25.00
2018,07,15,12,32,25.00
2018,07,15,12,33,25.10
2018,07,15,12,34,25.10
2018,07,15,12,35,25.10
2018,07,15,12,36,25.10
2018,07,15,12,37,25.20
2018,07,15,12,38,25.20
2018,07,15,12,39,25.30
2018,07,15,12,40,25.30
2018,07,15,12,41,25.30
2018,07,15,12,42,25.40
2018,07,15,12,43,25.40
2018,07,15,12,44,25.30
2018,07,15,12,45,25.30
2018,07,15,12,46,25.30
2018,07,15,12,47,25.30
2018,07,15,12,48,25.30
2018,07,15,12,49,25.30
2018,07,15,12,50,25.30
2018,07,15,12,51,25.30
2018,07,15,12,52,25.40
2018,07,15,12,53,25.50
2018,07,15,12,54,25.50
2018,07,15,12,55,25.50
2018,07,15,12,56,25.50
2018,07,15,12,57,25.40
2018,07,15,12,58,25.40
2018,07,15,12,59,25.50
2018,07,15,13,00,25.50
2018,07,15,13,01,25.50
2018,07,15,13,02,25.50
2018,07,15,13,03,25.50
2018,07,15,13,04,25.40
2018,07,15,13,05,25.40
2018,07,15,13,06,25.40
2018,07,15,13,07,25.40
2018,07,15,13,08,25.40
2018,07,15,13,09,25.40
2018,07,15,13,10,25.40
2018,07,15,13,11,25.40
2018,07,15,13,12,25.40
2018,07,15,13,13,25.40
2018,07,15,13,14,25.40
2018,07,15,13,15,25.40
2018,07,15,13,16,25.50
2018,07,15,13,17,25.50
2018,07,15,13,18,25.50
2018,07,15,13,19,25.50
2018,07,15,13,20,25.40
2018,07,15,13,21,25.40
2018,07,15,13,22,25.40
2018,07,15,13,23,25.50
2018,07,15,13,24,25.60
2018,07,15,13,25,25.60
2018,07,15,13,26,25.70
2018,07,15,13,27,25.70
2018,07,15,13,28,25.60
2018,07,15,13,29,25.60
2018,07,15,13,30,25.60
2018,07,15,13,31,25.60
2018,07,15,13,32,25.70
2018,07,15,13,33,25.70
2018,07,15,13,34,25.80
2018,07,15,13,35,25.90
2018,07,15,13,36,26.00
2018,07,15,13,37,26.00
2018,07,15,13,38,26.10
2018,07,15,13,39,26.10
2018,07,15,13,40,26.10
2018,07,15,13,41,26.10
2018,07,15,13,42,26.10
2018,07,15,13,43,26.10
2018,07,15,13,44,26.10
2018,07,15,13,45,26.10
2018,07,15,13,46,26.10
2018,07,15,13,47,26.10
2018,07,15,13,48,26.10
2018,07,15,13,49,26.10
2018,07,15,13,50,26.00
2018,07,15,13,51,26.00
2018,07,15,13,52,26.10
2018,07,15,13,53,26.10
2018,07,15,13,54,26.10
2018,07,15,13,55,26.20
2018,07,15,13,56,26.20
2018,07,15,13,57,26.20
2018,07,15,13,58,26.10
2018,07,15,13,59,26.00
2018,07,15,14,00,26.00
2018,07,15,14,01,26.00
2018,07,15,14,02,26.10
2018,07,15,14,03,26.10
2018,07,15,14,04,26.20
2018,07,15,14,05,26.30
2018,07,15,14,06,26.40
2018,07,15,14,07,26.40
2018,07,15,14,08,26.40
2018,07,15,14,09,26.40
2018,07,15,14,10,26.40
2018,07,15,14,11,26.50
2018,07,15,14,12,26.60
2018,07,15,14,13,26.70
2018,07,15,14,14,26.70
2018,07,15,14,15,26.70
2018,07,15,14,16,26.70
2018,07,15,14,17,26.60
2018,07,15,14,18,26.50
2018,07,15,14,19,26.50
2018,07,15,14,20,26.40
2018,07,15,14,21,26.40
2018,07,15,14,22,26.40
2018,07,15,14,23,26.40
2018,07,15,14,24,26.40
2018,07,15,14,25,26.40
2018,07,15,14,26,26.30
2018,07,15,14,27,26.30
2018,07,15,14,28,26.30
2018,07,15,14,29,26.30
2018,07,15,14,30,26.40
2018,07,15,14,31,26.40
2018,07,15,14,32,26.40
2018,07,15,14,33,26.40
2018,07,15,14,34,26.50
2018,07,15,14,35,26.50
2018,07,15,14,36,26.50
2018,07,15,14,37,26.60
2018,07,15,14,38,26.70
2018,07,15,14,39,26.70
2018,07,15,14,40,26.70
2018,07,15,14,41,26.80
2018,07,15,14,42,26.80
2018,07,15,14,43,26.80
2018,07,15,14,44,26.90
2018,07,15,14,45,26.90
2018,07,15,14,46,26.90
2018,07,15,14,47,26.90
2018,07,15,14,48,26.90
2018,07,15,14,49,26.80
2018,07,15,14,50,26.80
2018,07,15,14,51,26.80
2018,07,15,14,52,26.70
2018,07,15,14,53,26.60
2018,07,15,14,54,26.60
2018,07,15,14,55,26.60
2018,07,15,14,56,26.60
2018,07,15,14,57,26.70
2018,07,15,14,58,26.80
2018,07,15,14,59,26.80
2018,07,15,15,00,26.80
2018,07,15,15,01,26.90
2018,07,15,15,02,26.90
2018,07,15,15,03,27.00
2018,07,15,15,04,27.10
2018,07,15,15,05,27.10
2018,07,15,15,06,27.10
2018,07,15,15,07,27.10
2018,07,15,15,08,27.00
2018,07,15,15,09,27.00
2018,07,15,15,10,27.00
2018,07,15,15,11,27.00
2018,07,15,15,12,27.00
2018,07,15,15,13,27.00
2018,07,15,15,14,27.00
2018,07,15,15,15,27.10
2018,07,15,15,16,27.20
2018,07,15,15,17,27.30
2018,07,15,15,18,27.30
2018,07,15,15,19,27.30
2018,07,15,15,20,27.40
2018,07,15,15,21,27.50
2018,07,15,15,22,27.50
2018,07,15,15,23,27.60
2018,07,15,15,24,27.60
2018,07,15,15,25,27.60
2018,07,15,15,26,27.70
2018,07,15,15,27,27.70
2018,07,15,15,28,27.80
2018,07,15,15,29,27.80
2018,07,15,15,30,27.80
2018,07,15,15,31,27.80
2018,07,15,15,32,27.80
2018,07,15,15,33,27.80
2018,07,15,15,34,27.90
2018,07,15,15,35,27.90
2018,07,15,15,36,27.80
2018,07,15,15,37,27.80
2018,07,15,15,38,27.80
2018,07,15,15,39,27.80
2018,07,15,15,40,27.90
2018,07,15,15,41,27.90
2018,07,15,15,42,28.00
2018,07,15,15,43,28.00
2018,07,15,15,44,28.10
2018,07,15,15,45,28.10
2018,07,15,15,46,28.20
2018,07,15,15,47,28.20
2018,07,15,15,48,28.20
2018,07,15,15,49,28.10
2018,07,15,15,50,28.10
2018,07,15,15,51,28.10
2018,07,15,15,52,28.00
2018,07,15,15,53,28.10
2018,07,15,15,54,28.10
2018,07,15,15,55,28.10
2018,07,15,15,56,28.20
2018,07,15,15,57,28.20
2018,07,15,15,58,28.20
2018,07,15,15,59,28.30
2018,07,15,16,00,28.40
2018,07,15,16,01,28.40
2018,07,15,16,02,28.50
2018,07,15,16,03,28.50
2018,07,15,16,04,28.60
2018,07,15,16,05,28.70
2018,07,15,16,06,28.80
2018,07,15,16,07,28.80
2018,07,15,16,08,28.80
2018,07,15,16,09,28.80
2018,07,15,16,10,28.80
2018,07,15,16,11,28.80
2018,07,15,16,12,28.90
2018,07,15,16,13,28.90
2018,07,15,16,14,28.90
2018,07,15,16,15,28.80
2018,07,15,16,16,28.80
2018,07,15,16,17,28.80
2018,07,15,16,18,28.80
2018,07,15,16,19,28.80
2018,07,15,16,20,28.80
2018,07,15,16,21,28.80
2018,07,15,16,22,28.90
2018,07,15,16,23,29.00
2018,07,15,16,24,29.00
2018,07,15,16,25,29.10
2018,07,15,16,26,29.10
2018,07,15,16,27,29.20
2018,07,15,16,28,29.20
2018,07,15,16,29,29.20
2018,07,15,16,30,29.30
2018,07,15,16,31,29.40
2018,07,15,16,32,29.50
2018,07,15,16,33,29.50
2018,07,15,16,34,29.50
2018,07,15,16,35,29.50
2018,07,15,16,36,29.50
2018,07,15,16,37,29.50
2018,07,15,16,38,29.60
2018,07,15,16,39,29.60
2018,07,15,16,40,29.70
2018,07,15,16,41,29.80
2018,07,15,16,42,29.80
2018,07,15,16,43,29.90
2018,07,15,16,44,30.00
2018,07,15,16,45,30.00
2018,07,15,16,46,30.10
2018,07,15,16,47,30.10
2018,07,15,16,48,30.10
2018,07,15,16,49,30.20
2018,07,15,16,50,30.20
2018,07,15,16,51,30.10
2018,07,15,16,52,30.10
2018,07,15,16,53,30.10
2018,07,15,16,54,30.10
2018,07,15,16,55,30.00
2018,07,15,16,56,29.90
2018,07,15,16,57,29.80
2018,07,15,16,58,29.80
2018,07,15,16,59,29.80
2018,07,15,17,00,29.80
2018,07,15,17,01,29.80
2018,07,15,17,02,29.90
2018,07,15,17,03,29.90
2018,07,15,17,04,29.90
2018,07,15,17,05,30.00
2018,07,15,17,06,30.00
2018,07,15,17,07,30.00
2018,07,15,17,08,30.00
2018,07,15,17,09,30.00
2018,07,15,17,10,30.10
2018,07,15,17,11,30.20
2018,07,15,17,12,30.20
2018,07,15,17,13,30.20
2018,07,15,17,14,30.20
2018,07,15,17,15,30.20
2018,07,15,17,16,30.20
2018,07,15,17,17,30.20
2018,07,15,17,18,30.40
2018,07,15,17,19,30.40